Hourly Data Report for October 13, 2014

All times are specified in Local Standard Time (LST). Add 1 hour to adjust for Daylight Saving Time where and when it is observed.

CHARLOTTETOWN A
PRINCE EDWARD ISLAND

46°17'21.000" N
63°07'09.000" W
48.50 m
8300301
71706
YYG

Download Data

Hourly Data (October 2014)
Hourly Data Report for October 13, 2014
Temp Definition
°C
Dew Point Temp Definition
°C
Rel Hum Definition
%
Wind Dir Definition
10's deg

Wind Spd Definition
km/h
Visibility Definition
km
Stn Press Definition
kPa
Hmdx Definition


Wind Chill Definition


Weather Definition


TIME
00:00 Legend Double Dagger 5.4 2.4 81 26 10 24.1 101.68     LegendNANA
01:00 Legend Double Dagger 5.4 2.1 79 25 9 24.1 101.70     LegendNANA
02:00 Legend Double Dagger 5.1 3.1 87 27 11 24.1 101.69     Clear
03:00 Legend Double Dagger 5.0 3.3 89 25 9 24.1 101.69     LegendNANA
04:00 Legend Double Dagger 5.7 3.4 85 24 12 24.1 101.74     LegendNANA
05:00 Legend Double Dagger 5.6 3.5 86 24 10 24.1 101.80     Clear
06:00 Legend Double Dagger 5.5 4.2 91 24 13 24.1 101.82     LegendNANA
07:00 Legend Double Dagger 6.0 3.5 84 25 13 24.1 101.87     LegendNANA
08:00 Legend Double Dagger 7.6 4.2 79 24 13 24.1 101.87     Clear
09:00 Legend Double Dagger 9.9 4.9 71 24 17 24.1 101.87     LegendNANA
10:00 Legend Double Dagger 11.4 4.0 60 24 18 24.1 101.87     LegendNANA
11:00 Legend Double Dagger 12.7 3.4 53 23 21 24.1 101.83     Clear
12:00 Legend Double Dagger 13.8 3.9 51 25 19 24.1 101.80     LegendNANA
13:00 Legend Double Dagger 14.9 3.5 46 24 25 24.1 101.72     LegendNANA
14:00 Legend Double Dagger 15.7 4.5 47 24 19 24.1 101.70     Clear
15:00 Legend Double Dagger 15.6 4.4 47 24 19 24.1 101.70     LegendNANA
16:00 Legend Double Dagger 15.2 4.1 47 24 18 24.1 101.71     LegendNANA
17:00 Legend Double Dagger 14.1 4.5 52 24 9 24.1 101.70     Clear
18:00 Legend Double Dagger 12.6 4.9 59 24 16 24.1 101.68     LegendNANA
19:00 Legend Double Dagger 12.0 6.1 67 23 17 24.1 101.67     LegendNANA
20:00 Legend Double Dagger 11.3 8.0 80 23 17 24.1 101.68     Clear
21:00 Legend Double Dagger 11.0 9.1 88 23 15 24.1 101.70     LegendNANA
22:00 Legend Double Dagger 11.1 9.4 89 23 18 24.1 101.68     LegendNANA
23:00 Legend Double Dagger 10.8 9.2 90 23 18 24.1 101.70     Clear

Notes on Data Quality.

Legend

  • E = Estimated
  • M = Missing
  • NA = Not Available
  • ‡ = Partner data that is not subject to review by the National Climate Archives
Date modified: